Weather History for Garrison, ND

Change the Weather History Date:

Tuesday, January 1, 2013

  Actual Average Record
Temperature  
Mean Temperature 14 °F -  
Max Temperature 27 °F 18 °F - (-1)
Min Temperature 0 °F 2 °F - (-1)
Degree Days  
Heating Degree Days 52    
Moisture  
Dew Point 11 °F    
Average Humidity 88    
Maximum Humidity 96    
Minimum Humidity 83    
Precipitation  
Precipitation 0.07 in - - ()
Sea Level Pressure  
Sea Level Pressure 30.09 in    
Wind  
Wind Speed 7 mph (West)    
Max Wind Speed 20 mph    
Max Gust Speed 28 mph    
Averages and records for this station are not official NWS values.
T = Trace of Precipitation, MM = Missing Value Source: NWS Daily Summary

Daily Weather History Graph

Daily Weather History Graph

Search for Another Location

Airport:

Trip Planner

Search our weather history database for the weather conditions in past years. The results will help you decide how hot, cold, wet, or windy it might be!

Date:

Astronomy

Jan. 01, 2013 Rise Set
Actual Time 8:34 AM CST 5:05 PM CST
Civil Twilight 7:58 AM CST 5:40 PM CST
Nautical Twilight 7:19 AM CST 6:20 PM CST
Astronomical Twilight 6:41 AM CST 6:57 PM CST
Moon 9:59 PM CST 10:28 AM CST
Length of Visible Light 9h 42m
Length of Day
8h 30m
Waning Gibbous, 83% of the Moon is Illuminated
Jan 1
Waning Gibbous
Jan 4
Last Quarter
Jan 11
New
Jan 18
First Quarter
Jan 26
Full

Hourly Weather History & Observations

Time (CST) Temp. Windchill Dew Point Humidity Pressure Visibility Wind Dir Wind Speed Gust Speed Precip Events Conditions
12:52 AM 5.0 °F -4.1 °F 3.0 °F 92% 30.23 in - SSW 4.6 mph - N/A   Unknown
1:52 AM 3.0 °F -4.4 °F -0.9 °F 84% 30.22 in - SSW 3.5 mph - N/A   Unknown
2:52 AM 1.9 °F - -2.0 °F 83% 30.23 in - Calm Calm - N/A   Unknown
3:52 AM -0.9 °F - -5.1 °F 83% 30.22 in - Calm Calm - N/A   Unknown
4:52 AM -0.0 °F - -0.9 °F 96% 30.22 in - Calm Calm - N/A   Unknown
5:52 AM 3.9 °F -6.9 °F 1.9 °F 91% 30.20 in - WNW 5.8 mph - N/A   Unknown
6:52 AM 7.0 °F 0.1 °F 5.0 °F 92% 30.19 in - WSW 3.5 mph - N/A   Unknown
7:52 AM 10.9 °F -1.8 °F 9.0 °F 92% 30.15 in - West 9.2 mph - N/A   Unknown
8:52 AM 12.0 °F 4.1 °F 10.0 °F 92% 30.14 in - West 4.6 mph - 0.01 in   Unknown
9:52 AM 10.9 °F -0.8 °F 9.0 °F 92% 30.14 in - WSW 8.1 mph - N/A   Unknown
10:52 AM 10.9 °F -1.8 °F 9.0 °F 92% 30.12 in - WSW 9.2 mph - N/A   Unknown
11:52 AM 14.0 °F 2.9 °F 12.0 °F 92% 30.10 in - SW 8.1 mph - N/A   Unknown
12:52 PM 15.1 °F 4.2 °F 12.0 °F 88% 30.07 in - WSW 8.1 mph - N/A   Unknown
1:52 PM 15.1 °F 4.2 °F 12.0 °F 88% 30.04 in - WSW 8.1 mph - N/A   Unknown
2:52 PM 16.0 °F 5.3 °F 12.0 °F 84% 30.02 in - WSW 8.1 mph - N/A   Unknown
3:52 PM 18.0 °F 8.7 °F 14.0 °F 84% 30.01 in - WSW 6.9 mph - N/A   Unknown
4:52 PM 19.9 °F 11.1 °F 16.0 °F 85% 30.01 in - West 6.9 mph - 0.01 in   Unknown
5:52 PM 23.0 °F 10.1 °F 19.9 °F 88% 30.00 in - West 15.0 mph - 0.02 in   Unknown
6:52 PM 24.1 °F 12.5 °F 21.9 °F 91% 29.99 in - West 12.7 mph - 0.02 in   Unknown
7:52 PM 26.1 °F 12.7 °F 23.0 °F 88% 29.98 in - West 18.4 mph - 0.01 in   Unknown
8:52 PM 27.0 °F 15.6 °F 24.1 °F 89% 29.97 in - WNW 13.8 mph - N/A   Unknown
9:52 PM 26.1 °F 13.1 °F 21.9 °F 84% 29.97 in - WNW 17.3 mph - N/A   Unknown
10:52 PM 26.1 °F 12.7 °F 21.9 °F 84% 29.96 in - WNW 18.4 mph 27.6 mph N/A   Unknown
11:52 PM 27.0 °F 13.5 °F 23.0 °F 85% 29.97 in - WNW 19.6 mph 27.6 mph N/A   Unknown